Location: Makanda
(37.6176°N, 89.2090°W)
Time: 00:02:19
(UTC+00:00)

USA 186 - Pass Details

Date: 23 September 2019
Orbit: 261 x 450 km, 96.9° (Epoch: 07 October)

Event Time Altitude Azimuth Distance (km) Brightness Sun altitude
Exits shadow 01:43:55 69° 304° (NW) 487 2.1 -22.2°
Drops below altitude 10° 01:47:05 10° 345° (NNW) 1,590 5.1 -22.8°
Sets 01:49:07 0° 348° (NNW) 2,460 6.1 -23.2°
